PRIVATE WETTERSTATION BILLIGHEIM-ALLFELD                       ZURCK
Wetterdaten: Mittwoch, 15.11.2017
Datum Zeit Temp. A. Temp. A. min Temp. A. max Feuchte A. Luftdruck Regen Wind Richtung Richtung Sonnenschein ET Solar Taupunkt Windchill Windben Empfang
15.11.2017 00:00 -0,8 C -0,9 C -0,8 C 92 % 1028,1 hPa 0,0 l/m 0,0 km/h (0 Bft) W-NW 286 0 min 0,000 mm 0 W/m -1,9 C -0,8 C 0,0 km/h (0 Bft) 91 %
15.11.2017 00:10 -0,8 C -0,8 C -0,8 C 92 % 1028,0 hPa 0,0 l/m 0,0 km/h (0 Bft) W-NW 286 0 min 0,000 mm 0 W/m -1,9 C -0,8 C 0,0 km/h (0 Bft) 100 %
15.11.2017 00:20 -0,7 C -0,8 C -0,7 C 92 % 1027,9 hPa 0,0 l/m 0,0 km/h (0 Bft) W-NW 286 0 min 0,000 mm 0 W/m -1,8 C -0,7 C 0,0 km/h (0 Bft) 100 %
15.11.2017 00:30 -0,7 C -0,7 C -0,7 C 92 % 1027,9 hPa 0,0 l/m 0,0 km/h (0 Bft) W-NW 286 0 min 0,000 mm 0 W/m -1,8 C -0,7 C 0,0 km/h (0 Bft) 100 %
15.11.2017 00:40 -0,6 C -0,7 C -0,6 C 92 % 1027,8 hPa 0,0 l/m 0,0 km/h (0 Bft) W-NW 286 0 min 0,000 mm 0 W/m -1,7 C -0,6 C 0,0 km/h (0 Bft) 100 %
15.11.2017 00:50 -0,6 C -0,6 C -0,6 C 92 % 1027,8 hPa 0,0 l/m 0,0 km/h (0 Bft) W-NW 286 0 min 0,000 mm 0 W/m -1,7 C -0,6 C 0,0 km/h (0 Bft) 100 %
15.11.2017 01:00 -0,6 C -0,6 C -0,5 C 92 % 1027,8 hPa 0,0 l/m 0,0 km/h (0 Bft) W-NW 286 0 min 0,000 mm 0 W/m -1,7 C -0,6 C 0,0 km/h (0 Bft) 100 %
15.11.2017 01:10 -0,6 C -0,6 C -0,6 C 92 % 1027,8 hPa 0,0 l/m 0,0 km/h (0 Bft) W-NW 286 0 min 0,000 mm 0 W/m -1,7 C -0,6 C 0,0 km/h (0 Bft) 91 %
15.11.2017 01:20 -0,7 C -0,7 C -0,6 C 92 % 1027,6 hPa 0,0 l/m 0,0 km/h (0 Bft) W-NW 286 0 min 0,000 mm 0 W/m -1,8 C -0,7 C 0,0 km/h (0 Bft) 100 %
15.11.2017 01:30 -0,7 C -0,7 C -0,7 C 92 % 1027,6 hPa 0,0 l/m 0,3 km/h (0 Bft) W-NW 286 0 min 0,000 mm 0 W/m -1,8 C -0,7 C 3,2 km/h (1 Bft) 100 %
15.11.2017 01:40 -0,7 C -0,7 C -0,7 C 92 % 1027,6 hPa 0,0 l/m 0,0 km/h (0 Bft) W-NW 286 0 min 0,000 mm 0 W/m -1,8 C -0,7 C 1,6 km/h (1 Bft) 100 %
15.11.2017 01:50 -0,8 C -0,8 C -0,7 C 92 % 1027,8 hPa 0,0 l/m 0,0 km/h (0 Bft) W-NW 286 0 min 0,000 mm 0 W/m -1,9 C -0,8 C 0,0 km/h (0 Bft) 100 %
15.11.2017 02:00 -0,8 C -0,8 C -0,7 C 92 % 1027,5 hPa 0,0 l/m 0,0 km/h (0 Bft) W-NW 286 0 min 0,000 mm 0 W/m -1,9 C -0,8 C 1,6 km/h (1 Bft) 100 %
15.11.2017 02:10 -0,9 C -0,9 C -0,8 C 92 % 1027,6 hPa 0,0 l/m 0,0 km/h (0 Bft) W-NW 286 0 min 0,000 mm 0 W/m -2,0 C -0,9 C 0,0 km/h (0 Bft) 100 %
15.11.2017 02:20 -1,1 C -1,1 C -0,9 C 92 % 1027,4 hPa 0,0 l/m 0,0 km/h (0 Bft) W-NW 286 0 min 0,000 mm 0 W/m -2,2 C -1,1 C 0,0 km/h (0 Bft) 100 %
15.11.2017 02:30 -1,1 C -1,1 C -1,1 C 92 % 1027,6 hPa 0,0 l/m 0,0 km/h (0 Bft) W-NW 286 0 min 0,000 mm 0 W/m -2,2 C -1,1 C 0,0 km/h (0 Bft) 91 %
15.11.2017 02:40 -1,2 C -1,2 C -1,1 C 92 % 1027,3 hPa 0,0 l/m 0,0 km/h (0 Bft) W-NW 286 0 min 0,000 mm 0 W/m -2,3 C -1,2 C 0,0 km/h (0 Bft) 100 %
15.11.2017 02:50 -1,2 C -1,2 C -1,2 C 92 % 1027,4 hPa 0,0 l/m 0,0 km/h (0 Bft) W-NW 286 0 min 0,000 mm 0 W/m -2,3 C -1,2 C 0,0 km/h (0 Bft) 100 %
15.11.2017 03:00 -1,3 C -1,3 C -1,2 C 92 % 1027,4 hPa 0,0 l/m 0,1 km/h (0 Bft) W-NW 286 0 min 0,000 mm 0 W/m -2,4 C -1,3 C 1,6 km/h (1 Bft) 100 %
15.11.2017 03:10 -1,4 C -1,4 C -1,3 C 92 % 1027,5 hPa 0,0 l/m 0,0 km/h (0 Bft) W-NW 288 0 min 0,000 mm 0 W/m -2,5 C -1,4 C 0,0 km/h (0 Bft) 91 %
15.11.2017 03:20 -1,4 C -1,4 C -1,4 C 92 % 1027,5 hPa 0,0 l/m 0,1 km/h (0 Bft) W-NW 294 0 min 0,000 mm 0 W/m -2,5 C -1,4 C 4,8 km/h (1 Bft) 100 %
15.11.2017 03:30 -1,4 C -1,4 C -1,4 C 92 % 1027,4 hPa 0,0 l/m 0,0 km/h (0 Bft) W-NW 294 0 min 0,000 mm 0 W/m -2,5 C -1,4 C 0,0 km/h (0 Bft) 100 %
15.11.2017 03:40 -1,6 C -1,6 C -1,4 C 92 % 1027,3 hPa 0,0 l/m 0,0 km/h (0 Bft) W-NW 294 0 min 0,000 mm 0 W/m -2,7 C -1,6 C 0,0 km/h (0 Bft) 100 %
15.11.2017 03:50 -1,6 C -1,6 C -1,6 C 92 % 1027,2 hPa 0,0 l/m 0,0 km/h (0 Bft) W-NW 294 0 min 0,000 mm 0 W/m -2,7 C -1,6 C 0,0 km/h (0 Bft) 100 %
15.11.2017 04:00 -1,6 C -1,7 C -1,6 C 92 % 1027,2 hPa 0,0 l/m 0,0 km/h (0 Bft) W-NW 294 0 min 0,000 mm 0 W/m -2,7 C -1,6 C 0,0 km/h (0 Bft) 100 %
15.11.2017 04:10 -1,7 C -1,7 C -1,6 C 92 % 1027,0 hPa 0,0 l/m 0,0 km/h (0 Bft) W-NW 294 0 min 0,000 mm 0 W/m -2,8 C -1,7 C 0,0 km/h (0 Bft) 100 %
15.11.2017 04:20 -1,7 C -1,7 C -1,7 C 92 % 1027,1 hPa 0,0 l/m 0,0 km/h (0 Bft) W-NW 294 0 min 0,000 mm 0 W/m -2,8 C -1,7 C 0,0 km/h (0 Bft) 100 %
15.11.2017 04:30 -1,8 C -1,8 C -1,7 C 92 % 1027,2 hPa 0,0 l/m 0,0 km/h (0 Bft) W-NW 294 0 min 0,000 mm 0 W/m -2,9 C -1,8 C 0,0 km/h (0 Bft) 100 %
15.11.2017 04:40 -1,9 C -1,9 C -1,8 C 92 % 1027,2 hPa 0,0 l/m 0,0 km/h (0 Bft) W-NW 294 0 min 0,000 mm 0 W/m -3,0 C -1,9 C 0,0 km/h (0 Bft) 99 %
15.11.2017 04:50 -1,9 C -1,9 C -1,8 C 92 % 1027,2 hPa 0,0 l/m 0,0 km/h (0 Bft) W-NW 294 0 min 0,000 mm 0 W/m -3,0 C -1,9 C 0,0 km/h (0 Bft) 100 %
15.11.2017 05:00 -1,9 C -1,9 C -1,9 C 92 % 1027,2 hPa 0,0 l/m 0,0 km/h (0 Bft) W-NW 294 0 min 0,000 mm 0 W/m -3,0 C -1,9 C 0,0 km/h (0 Bft) 100 %
15.11.2017 05:10 -2,0 C -2,0 C -1,9 C 92 % 1027,2 hPa 0,0 l/m 0,0 km/h (0 Bft) W-NW 294 0 min 0,000 mm 0 W/m -3,1 C -2,0 C 0,0 km/h (0 Bft) 100 %
15.11.2017 05:20 -1,9 C -2,0 C -1,9 C 92 % 1027,2 hPa 0,0 l/m 0,0 km/h (0 Bft) W-NW 294 0 min 0,000 mm 0 W/m -3,0 C -1,9 C 1,6 km/h (1 Bft) 100 %
15.11.2017 05:30 -1,9 C -1,9 C -1,9 C 92 % 1027,1 hPa 0,0 l/m 0,0 km/h (0 Bft) W-NW 294 0 min 0,000 mm 0 W/m -3,0 C -1,9 C 0,0 km/h (0 Bft) 100 %
15.11.2017 05:40 -1,9 C -1,9 C -1,9 C 92 % 1027,2 hPa 0,0 l/m 0,0 km/h (0 Bft) W-NW 294 0 min 0,000 mm 0 W/m -3,0 C -1,9 C 0,0 km/h (0 Bft) 100 %
15.11.2017 05:50 -1,9 C -1,9 C -1,9 C 92 % 1027,1 hPa 0,0 l/m 0,0 km/h (0 Bft) W-NW 294 0 min 0,000 mm 0 W/m -3,0 C -1,9 C 0,0 km/h (0 Bft) 99 %
15.11.2017 06:00 -1,9 C -1,9 C -1,9 C 92 % 1027,2 hPa 0,0 l/m 0,0 km/h (0 Bft) W-NW 294 0 min 0,000 mm 0 W/m -3,0 C -1,9 C 0,0 km/h (0 Bft) 100 %
15.11.2017 06:10 -1,9 C -2,0 C -1,9 C 92 % 1027,2 hPa 0,0 l/m 0,0 km/h (0 Bft) W-NW 294 0 min 0,000 mm 0 W/m -3,0 C -1,9 C 0,0 km/h (0 Bft) 99 %
15.11.2017 06:20 -2,0 C -2,0 C -1,9 C 92 % 1027,3 hPa 0,0 l/m 0,0 km/h (0 Bft) W-NW 294 0 min 0,000 mm 0 W/m -3,1 C -2,0 C 0,0 km/h (0 Bft) 100 %
15.11.2017 06:30 -2,1 C -2,1 C -2,0 C 92 % 1027,3 hPa 0,0 l/m 0,0 km/h (0 Bft) W-NW 294 0 min 0,000 mm 0 W/m -3,2 C -2,1 C 0,0 km/h (0 Bft) 100 %
15.11.2017 06:40 -2,1 C -2,2 C -2,1 C 92 % 1027,3 hPa 0,0 l/m 0,0 km/h (0 Bft) W-NW 294 0 min 0,000 mm 0 W/m -3,2 C -2,1 C 0,0 km/h (0 Bft) 100 %
15.11.2017 06:50 -2,2 C -2,2 C -2,1 C 92 % 1027,4 hPa 0,0 l/m 0,0 km/h (0 Bft) W-NW 294 0 min 0,000 mm 0 W/m -3,3 C -2,2 C 0,0 km/h (0 Bft) 100 %
15.11.2017 07:00 -2,2 C -2,2 C -2,2 C 92 % 1027,4 hPa 0,0 l/m 0,0 km/h (0 Bft) W-NW 294 0 min 0,000 mm 0 W/m -3,3 C -2,2 C 0,0 km/h (0 Bft) 99 %
15.11.2017 07:10 -2,2 C -2,2 C -2,2 C 92 % 1027,5 hPa 0,0 l/m 0,0 km/h (0 Bft) W-NW 294 0 min 0,000 mm 0 W/m -3,3 C -2,2 C 0,0 km/h (0 Bft) 100 %
15.11.2017 07:20 -2,2 C -2,2 C -2,1 C 92 % 1027,7 hPa 0,0 l/m 0,0 km/h (0 Bft) W-NW 294 0 min 0,000 mm 0 W/m -3,3 C -2,2 C 0,0 km/h (0 Bft) 91 %
15.11.2017 07:30 -2,1 C -2,2 C -2,1 C 92 % 1027,8 hPa 0,0 l/m 0,0 km/h (0 Bft) W-NW 294 0 min 0,000 mm 0 W/m -3,2 C -2,1 C 0,0 km/h (0 Bft) 99 %
15.11.2017 07:40 -2,1 C -2,1 C -2,1 C 92 % 1028,0 hPa 0,0 l/m 0,0 km/h (0 Bft) W-NW 294 0 min 0,000 mm 5 W/m -3,2 C -2,1 C 0,0 km/h (0 Bft) 100 %
15.11.2017 07:50 -1,9 C -2,1 C -1,9 C 92 % 1028,0 hPa 0,0 l/m 0,1 km/h (0 Bft) W-NW 294 0 min 0,000 mm 7 W/m -3,0 C -1,9 C 3,2 km/h (1 Bft) 95 %
15.11.2017 08:00 -1,8 C -1,9 C -1,8 C 92 % 1028,0 hPa 0,0 l/m 0,0 km/h (0 Bft) W-NW 294 0 min 0,000 mm 16 W/m -2,9 C -1,8 C 0,0 km/h (0 Bft) 96 %
15.11.2017 08:10 -1,7 C -1,8 C -1,7 C 92 % 1028,0 hPa 0,0 l/m 0,0 km/h (0 Bft) W-NW 294 0 min 0,000 mm 18 W/m -2,8 C -1,7 C 0,0 km/h (0 Bft) 99 %
15.11.2017 08:20 -1,7 C -1,7 C -1,7 C 92 % 1028,1 hPa 0,0 l/m 0,0 km/h (0 Bft) W-NW 294 0 min 0,000 mm 25 W/m -2,8 C -1,7 C 0,0 km/h (0 Bft) 100 %
15.11.2017 08:30 -1,5 C -1,7 C -1,5 C 92 % 1028,2 hPa 0,0 l/m 0,1 km/h (0 Bft) W-NW 294 0 min 0,000 mm 25 W/m -2,6 C -1,5 C 3,2 km/h (1 Bft) 100 %
15.11.2017 08:40 -1,4 C -1,5 C -1,4 C 92 % 1028,3 hPa 0,0 l/m 0,2 km/h (0 Bft) W-NW 294 0 min 0,000 mm 37 W/m -2,5 C -1,4 C 1,6 km/h (1 Bft) 100 %
15.11.2017 08:50 -1,3 C -1,4 C -1,3 C 92 % 1028,4 hPa 0,0 l/m 0,0 km/h (0 Bft) W-NW 294 0 min 0,000 mm 40 W/m -2,4 C -1,3 C 0,0 km/h (0 Bft) 100 %
15.11.2017 09:00 -1,1 C -1,3 C -1,1 C 92 % 1028,4 hPa 0,0 l/m 0,0 km/h (0 Bft) W-NW 294 0 min 0,000 mm 39 W/m -2,2 C -1,1 C 0,0 km/h (0 Bft) 100 %
15.11.2017 09:10 -0,9 C -1,1 C -0,9 C 92 % 1028,4 hPa 0,0 l/m 0,0 km/h (0 Bft) W-NW 294 0 min 0,000 mm 49 W/m -2,0 C -0,9 C 0,0 km/h (0 Bft) 100 %
15.11.2017 09:20 -0,8 C -0,9 C -0,8 C 92 % 1028,4 hPa 0,0 l/m 0,0 km/h (0 Bft) W-NW 294 0 min 0,000 mm 62 W/m -1,9 C -0,8 C 0,0 km/h (0 Bft) 100 %
15.11.2017 09:30 -0,7 C -0,8 C -0,7 C 92 % 1028,5 hPa 0,2 l/m 0,0 km/h (0 Bft) W-NW 294 0 min 0,000 mm 65 W/m -1,8 C -0,7 C 0,0 km/h (0 Bft) 99 %
15.11.2017 09:40 -0,7 C -0,7 C -0,7 C 92 % 1028,4 hPa 0,0 l/m 0,0 km/h (0 Bft) W-NW 294 0 min 0,000 mm 81 W/m -1,8 C -0,7 C 1,6 km/h (1 Bft) 99 %
15.11.2017 09:50 -0,7 C -0,7 C -0,6 C 92 % 1028,4 hPa 0,0 l/m 0,0 km/h (0 Bft) W-NW 294 0 min 0,000 mm 86 W/m -1,8 C -0,7 C 0,0 km/h (0 Bft) 89 %
15.11.2017 10:00 -0,6 C -0,7 C -0,6 C 92 % 1028,5 hPa 0,0 l/m 0,2 km/h (0 Bft) W-NW 294 0 min 0,025 mm 79 W/m -1,7 C -0,6 C 3,2 km/h (1 Bft) 100 %
15.11.2017 10:10 -0,5 C -0,6 C -0,5 C 92 % 1028,4 hPa 0,0 l/m 0,0 km/h (0 Bft) W-NW 294 0 min 0,000 mm 79 W/m -1,6 C -0,5 C 0,0 km/h (0 Bft) 100 %
15.11.2017 10:20 -0,4 C -0,5 C -0,4 C 92 % 1028,5 hPa 0,0 l/m 0,0 km/h (0 Bft) W-NW 294 0 min 0,000 mm 118 W/m -1,5 C -0,4 C 1,6 km/h (1 Bft) 99 %
15.11.2017 10:30 -0,4 C -0,4 C -0,4 C 92 % 1028,5 hPa 0,0 l/m 0,2 km/h (0 Bft) NW 306 0 min 0,000 mm 114 W/m -1,5 C -0,4 C 3,2 km/h (1 Bft) 100 %
15.11.2017 10:40 -0,2 C -0,4 C -0,2 C 92 % 1028,5 hPa 0,0 l/m 0,0 km/h (0 Bft) NW 306 0 min 0,000 mm 111 W/m -1,3 C -0,2 C 0,0 km/h (0 Bft) 92 %
15.11.2017 10:50 0,0 C -0,2 C 0,0 C 92 % 1028,5 hPa 0,0 l/m 0,2 km/h (0 Bft) NW 306 0 min 0,000 mm 109 W/m -1,1 C 0,0 C 3,2 km/h (1 Bft) 100 %
15.11.2017 11:00 0,3 C 0,0 C 0,3 C 92 % 1028,4 hPa 0,0 l/m 0,1 km/h (0 Bft) NW 306 0 min 0,026 mm 118 W/m -0,8 C 0,3 C 1,6 km/h (1 Bft) 99 %
15.11.2017 11:10 0,3 C 0,3 C 0,3 C 92 % 1028,4 hPa 0,0 l/m 0,0 km/h (0 Bft) NW 306 0 min 0,000 mm 146 W/m -0,8 C 0,3 C 0,0 km/h (0 Bft) 100 %
15.11.2017 11:20 0,5 C 0,3 C 0,5 C 92 % 1028,3 hPa 0,0 l/m 0,0 km/h (0 Bft) NW 306 0 min 0,000 mm 144 W/m -0,6 C 0,5 C 0,0 km/h (0 Bft) 91 %
15.11.2017 11:30 0,6 C 0,5 C 0,6 C 92 % 1028,2 hPa 0,0 l/m 0,0 km/h (0 Bft) NW 306 10 min 0,000 mm 174 W/m -0,5 C 0,6 C 0,0 km/h (0 Bft) 100 %
15.11.2017 11:40 0,8 C 0,6 C 0,8 C 92 % 1028,1 hPa 0,0 l/m 0,0 km/h (0 Bft) NW 313 10 min 0,000 mm 156 W/m -0,3 C 0,8 C 0,0 km/h (0 Bft) 100 %
15.11.2017 11:50 0,9 C 0,8 C 0,9 C 92 % 1028,0 hPa 0,0 l/m 0,0 km/h (0 Bft) NW 313 10 min 0,000 mm 167 W/m -0,2 C 0,9 C 0,0 km/h (0 Bft) 100 %
15.11.2017 12:00 1,1 C 0,9 C 1,1 C 92 % 1027,8 hPa 0,0 l/m 0,2 km/h (0 Bft) NW 308 10 min 0,051 mm 202 W/m -0,1 C 1,1 C 3,2 km/h (1 Bft) 100 %
15.11.2017 12:10 1,2 C 1,1 C 1,2 C 92 % 1027,8 hPa 0,0 l/m 1,7 km/h (1 Bft) SW 216 10 min 0,000 mm 223 W/m 0,0 C 1,2 C 6,4 km/h (2 Bft) 99 %
15.11.2017 12:20 1,6 C 1,2 C 1,6 C 92 % 1027,7 hPa 0,0 l/m 0,3 km/h (0 Bft) SW 216 10 min 0,000 mm 281 W/m 0,4 C 1,6 C 3,2 km/h (1 Bft) 100 %
15.11.2017 12:30 1,9 C 1,6 C 1,9 C 92 % 1027,6 hPa 0,0 l/m 0,0 km/h (0 Bft) W-SW 243 10 min 0,000 mm 195 W/m 0,7 C 1,9 C 0,0 km/h (0 Bft) 100 %
15.11.2017 12:40 2,1 C 1,9 C 2,1 C 92 % 1027,6 hPa 0,0 l/m 0,2 km/h (0 Bft) W-SW 254 10 min 0,000 mm 176 W/m 0,9 C 2,1 C 4,8 km/h (1 Bft) 100 %
15.11.2017 12:50 2,2 C 2,1 C 2,2 C 92 % 1027,4 hPa 0,0 l/m 0,4 km/h (0 Bft) W 272 10 min 0,000 mm 162 W/m 1,0 C 2,2 C 3,2 km/h (1 Bft) 100 %
15.11.2017 13:00 2,4 C 2,2 C 2,4 C 92 % 1027,3 hPa 0,0 l/m 0,0 km/h (0 Bft) W 272 0 min 0,076 mm 149 W/m 1,2 C 2,4 C 1,6 km/h (1 Bft) 91 %
15.11.2017 13:10 2,4 C 2,3 C 2,4 C 92 % 1027,2 hPa 0,0 l/m 0,0 km/h (0 Bft) W 272 0 min 0,000 mm 139 W/m 1,2 C 2,4 C 0,0 km/h (0 Bft) 100 %
15.11.2017 13:20 2,6 C 2,3 C 2,6 C 92 % 1027,0 hPa 0,0 l/m 0,0 km/h (0 Bft) W 272 10 min 0,000 mm 179 W/m 1,4 C 2,6 C 0,0 km/h (0 Bft) 100 %
15.11.2017 13:30 2,8 C 2,6 C 2,8 C 92 % 1026,9 hPa 0,0 l/m 0,0 km/h (0 Bft) W 272 0 min 0,000 mm 139 W/m 1,6 C 2,8 C 0,0 km/h (0 Bft) 100 %
15.11.2017 13:40 2,9 C 2,8 C 2,9 C 92 % 1026,9 hPa 0,0 l/m 0,0 km/h (0 Bft) W 272 0 min 0,000 mm 128 W/m 1,7 C 2,9 C 0,0 km/h (0 Bft) 100 %
15.11.2017 13:50 2,9 C 2,9 C 2,9 C 92 % 1026,9 hPa 0,0 l/m 0,0 km/h (0 Bft) W 272 0 min 0,000 mm 109 W/m 1,7 C 2,9 C 0,0 km/h (0 Bft) 100 %
15.11.2017 14:00 2,9 C 2,9 C 2,9 C 92 % 1026,8 hPa 0,0 l/m 0,0 km/h (0 Bft) W 272 0 min 0,051 mm 130 W/m 1,7 C 2,9 C 0,0 km/h (0 Bft) 100 %
15.11.2017 14:10 3,3 C 2,9 C 3,3 C 92 % 1026,6 hPa 0,0 l/m 0,2 km/h (0 Bft) W-NW 294 0 min 0,000 mm 135 W/m 2,1 C 3,3 C 4,8 km/h (1 Bft) 91 %
15.11.2017 14:20 3,4 C 3,3 C 3,4 C 92 % 1026,5 hPa 0,0 l/m 0,0 km/h (0 Bft) W-NW 294 10 min 0,000 mm 213 W/m 2,2 C 3,4 C 0,0 km/h (0 Bft) 100 %
15.11.2017 14:30 3,6 C 3,4 C 3,6 C 92 % 1026,6 hPa 0,0 l/m 0,0 km/h (0 Bft) W-NW 294 0 min 0,000 mm 62 W/m 2,4 C 3,6 C 0,0 km/h (0 Bft) 100 %
15.11.2017 14:40 3,7 C 3,6 C 3,7 C 92 % 1026,5 hPa 0,0 l/m 0,0 km/h (0 Bft) W-NW 294 0 min 0,000 mm 51 W/m 2,5 C 3,7 C 0,0 km/h (0 Bft) 100 %
15.11.2017 14:50 3,7 C 3,7 C 3,7 C 92 % 1026,5 hPa 0,0 l/m 0,0 km/h (0 Bft) W-NW 291 0 min 0,000 mm 44 W/m 2,5 C 3,7 C 1,6 km/h (1 Bft) 99 %
15.11.2017 15:00 3,8 C 3,7 C 3,8 C 92 % 1026,5 hPa 0,0 l/m 0,0 km/h (0 Bft) W-NW 291 0 min 0,050 mm 42 W/m 2,6 C 3,8 C 0,0 km/h (0 Bft) 100 %
15.11.2017 15:10 3,9 C 3,8 C 3,9 C 92 % 1026,4 hPa 0,0 l/m 0,1 km/h (0 Bft) W-NW 292 0 min 0,000 mm 42 W/m 2,7 C 3,9 C 3,2 km/h (1 Bft) 100 %
15.11.2017 15:20 4,0 C 3,9 C 4,0 C 92 % 1026,3 hPa 0,0 l/m 0,5 km/h (0 Bft) W-NW 299 0 min 0,000 mm 40 W/m 2,8 C 4,0 C 4,8 km/h (1 Bft) 100 %
15.11.2017 15:30 3,9 C 3,9 C 4,0 C 92 % 1026,3 hPa 0,0 l/m 0,0 km/h (0 Bft) W-NW 299 0 min 0,000 mm 35 W/m 2,7 C 3,9 C 0,0 km/h (0 Bft) 100 %
15.11.2017 15:40 3,8 C 3,8 C 3,9 C 92 % 1026,4 hPa 0,0 l/m 0,0 km/h (0 Bft) W-NW 299 0 min 0,000 mm 32 W/m 2,6 C 3,8 C 0,0 km/h (0 Bft) 100 %
15.11.2017 15:50 3,8 C 3,8 C 3,8 C 92 % 1026,4 hPa 0,0 l/m 0,0 km/h (0 Bft) W-NW 299 0 min 0,000 mm 26 W/m 2,6 C 3,8 C 0,0 km/h (0 Bft) 99 %
15.11.2017 16:00 3,6 C 3,6 C 3,8 C 91 % 1026,4 hPa 0,0 l/m 0,0 km/h (0 Bft) W-NW 299 0 min 0,026 mm 23 W/m 2,3 C 3,6 C 0,0 km/h (0 Bft) 100 %
15.11.2017 16:10 3,4 C 3,4 C 3,6 C 92 % 1026,5 hPa 0,0 l/m 0,0 km/h (0 Bft) W-NW 299 0 min 0,000 mm 16 W/m 2,2 C 3,4 C 0,0 km/h (0 Bft) 100 %
15.11.2017 16:20 3,2 C 3,2 C 3,4 C 91 % 1026,4 hPa 0,0 l/m 0,0 km/h (0 Bft) W-NW 299 0 min 0,000 mm 11 W/m 1,9 C 3,2 C 0,0 km/h (0 Bft) 99 %
15.11.2017 16:30 2,9 C 2,9 C 3,2 C 91 % 1026,6 hPa 0,0 l/m 0,0 km/h (0 Bft) W-NW 299 0 min 0,000 mm 7 W/m 1,6 C 2,9 C 0,0 km/h (0 Bft) 100 %
15.11.2017 16:40 2,7 C 2,7 C 2,9 C 91 % 1026,5 hPa 0,0 l/m 0,0 km/h (0 Bft) W-NW 299 0 min 0,000 mm 0 W/m 1,4 C 2,7 C 0,0 km/h (0 Bft) 100 %
15.11.2017 16:50 2,6 C 2,6 C 2,8 C 91 % 1026,6 hPa 0,0 l/m 0,4 km/h (0 Bft) W-NW 299 0 min 0,000 mm 0 W/m 1,3 C 2,6 C 3,2 km/h (1 Bft) 100 %
15.11.2017 17:00 2,4 C 2,4 C 2,6 C 91 % 1026,6 hPa 0,0 l/m 0,0 km/h (0 Bft) W-NW 300 0 min 0,000 mm 0 W/m 1,1 C 2,4 C 1,6 km/h (1 Bft) 100 %
15.11.2017 17:10 2,3 C 2,3 C 2,4 C 91 % 1026,7 hPa 0,0 l/m 0,8 km/h (0 Bft) N-NW 328 0 min 0,000 mm 0 W/m 1,0 C 2,3 C 4,8 km/h (1 Bft) 100 %
15.11.2017 17:20 2,3 C 2,3 C 2,3 C 91 % 1026,8 hPa 0,0 l/m 1,8 km/h (1 Bft) N-NW 344 0 min 0,000 mm 0 W/m 1,0 C 2,3 C 4,8 km/h (1 Bft) 99 %
15.11.2017 17:30 2,3 C 2,3 C 2,3 C 91 % 1026,7 hPa 0,0 l/m 0,3 km/h (0 Bft) N-NW 345 0 min 0,000 mm 0 W/m 1,0 C 2,3 C 3,2 km/h (1 Bft) 100 %
15.11.2017 17:40 2,2 C 2,2 C 2,3 C 91 % 1026,9 hPa 0,0 l/m 0,0 km/h (0 Bft) N-NW 345 0 min 0,000 mm 0 W/m 0,9 C 2,2 C 0,0 km/h (0 Bft) 99 %
15.11.2017 17:50 2,1 C 2,1 C 2,2 C 91 % 1026,8 hPa 0,0 l/m 0,2 km/h (0 Bft) N-NW 345 0 min 0,000 mm 0 W/m 0,8 C 2,1 C 3,2 km/h (1 Bft) 99 %
15.11.2017 18:00 1,9 C 1,9 C 2,1 C 91 % 1026,8 hPa 0,0 l/m 0,0 km/h (0 Bft) N-NW 345 0 min 0,000 mm 0 W/m 0,6 C 1,9 C 0,0 km/h (0 Bft) 99 %
15.11.2017 18:10 1,9 C 1,9 C 2,0 C 91 % 1026,9 hPa 0,0 l/m 0,0 km/h (0 Bft) N-NW 345 0 min 0,000 mm 0 W/m 0,6 C 1,9 C 0,0 km/h (0 Bft) 100 %
15.11.2017 18:20 1,8 C 1,8 C 1,9 C 91 % 1026,9 hPa 0,0 l/m 0,0 km/h (0 Bft) N-NW 345 0 min 0,000 mm 0 W/m 0,5 C 1,8 C 0,0 km/h (0 Bft) 98 %
15.11.2017 18:30 1,7 C 1,7 C 1,8 C 91 % 1027,0 hPa 0,0 l/m 0,0 km/h (0 Bft) N-NW 345 0 min 0,000 mm 0 W/m 0,4 C 1,7 C 0,0 km/h (0 Bft) 99 %
15.11.2017 18:40 1,7 C 1,7 C 1,7 C 91 % 1027,0 hPa 0,0 l/m 0,0 km/h (0 Bft) N-NW 345 0 min 0,000 mm 0 W/m 0,4 C 1,7 C 0,0 km/h (0 Bft) 99 %
15.11.2017 18:50 1,7 C 1,7 C 1,7 C 91 % 1027,0 hPa 0,0 l/m 0,0 km/h (0 Bft) N-NW 345 0 min 0,000 mm 0 W/m 0,4 C 1,7 C 0,0 km/h (0 Bft) 98 %
15.11.2017 19:00 1,7 C 1,7 C 1,7 C 91 % 1027,1 hPa 0,0 l/m 0,0 km/h (0 Bft) N-NW 345 0 min 0,000 mm 0 W/m 0,4 C 1,7 C 0,0 km/h (0 Bft) 98 %
15.11.2017 19:10 1,8 C 1,7 C 1,8 C 92 % 1027,0 hPa 0,0 l/m 0,0 km/h (0 Bft) N-NW 345 0 min 0,000 mm 0 W/m 0,6 C 1,8 C 0,0 km/h (0 Bft) 98 %
15.11.2017 19:20 1,8 C 1,8 C 1,8 C 92 % 1027,0 hPa 0,0 l/m 0,0 km/h (0 Bft) N-NW 345 0 min 0,000 mm 0 W/m 0,6 C 1,8 C 0,0 km/h (0 Bft) 98 %
15.11.2017 19:30 1,8 C 1,8 C 1,8 C 92 % 1027,0 hPa 0,0 l/m 0,0 km/h (0 Bft) N-NW 345 0 min 0,000 mm 0 W/m 0,6 C 1,8 C 0,0 km/h (0 Bft) 98 %
15.11.2017 19:40 1,9 C 1,8 C 1,9 C 92 % 1027,0 hPa 0,0 l/m 0,0 km/h (0 Bft) N-NW 345 0 min 0,000 mm 0 W/m 0,7 C 1,9 C 0,0 km/h (0 Bft) 97 %
15.11.2017 19:50 1,9 C 1,9 C 1,9 C 92 % 1027,0 hPa 0,0 l/m 0,0 km/h (0 Bft) N-NW 345 0 min 0,000 mm 0 W/m 0,7 C 1,9 C 0,0 km/h (0 Bft) 97 %
15.11.2017 20:00 1,9 C 1,9 C 1,9 C 91 % 1026,9 hPa 0,0 l/m 0,0 km/h (0 Bft) N-NW 345 0 min 0,000 mm 0 W/m 0,6 C 1,9 C 1,6 km/h (1 Bft) 98 %
15.11.2017 20:10 1,9 C 1,9 C 1,9 C 91 % 1026,8 hPa 0,0 l/m 0,0 km/h (0 Bft) N-NW 345 0 min 0,000 mm 0 W/m 0,6 C 1,9 C 0,0 km/h (0 Bft) 97 %
15.11.2017 20:20 1,9 C 1,9 C 2,0 C 91 % 1026,8 hPa 0,0 l/m 0,0 km/h (0 Bft) N-NW 345 0 min 0,000 mm 0 W/m 0,6 C 1,9 C 0,0 km/h (0 Bft) 97 %
15.11.2017 20:30 2,0 C 1,9 C 2,0 C 91 % 1026,8 hPa 0,0 l/m 0,3 km/h (0 Bft) N-NW 348 0 min 0,000 mm 0 W/m 0,7 C 2,0 C 4,8 km/h (1 Bft) 98 %
15.11.2017 20:40 1,9 C 1,9 C 2,0 C 91 % 1026,8 hPa 0,0 l/m 0,0 km/h (0 Bft) N 350 0 min 0,000 mm 0 W/m 0,6 C 1,9 C 1,6 km/h (1 Bft) 97 %
15.11.2017 20:50 1,9 C 1,9 C 1,9 C 91 % 1027,0 hPa 0,0 l/m 0,1 km/h (0 Bft) N 350 0 min 0,000 mm 0 W/m 0,6 C 1,9 C 3,2 km/h (1 Bft) 97 %
15.11.2017 21:00 1,9 C 1,9 C 1,9 C 91 % 1026,9 hPa 0,0 l/m 0,2 km/h (0 Bft) N 11 0 min 0,000 mm 0 W/m 0,6 C 1,9 C 4,8 km/h (1 Bft) 98 %
15.11.2017 21:10 2,0 C 1,9 C 2,0 C 91 % 1026,7 hPa 0,0 l/m 0,1 km/h (0 Bft) N-NO 15 0 min 0,000 mm 0 W/m 0,7 C 2,0 C 1,6 km/h (1 Bft) 97 %
15.11.2017 21:20 2,0 C 2,0 C 2,0 C 91 % 1026,6 hPa 0,0 l/m 0,1 km/h (0 Bft) N-NO 17 0 min 0,000 mm 0 W/m 0,7 C 2,0 C 3,2 km/h (1 Bft) 98 %
15.11.2017 21:30 2,0 C 2,0 C 2,0 C 91 % 1026,6 hPa 0,0 l/m 0,0 km/h (0 Bft) N-NO 17 0 min 0,000 mm 0 W/m 0,7 C 2,0 C 0,0 km/h (0 Bft) 97 %
15.11.2017 21:40 2,0 C 1,9 C 2,0 C 91 % 1026,7 hPa 0,0 l/m 0,0 km/h (0 Bft) N-NO 17 0 min 0,000 mm 0 W/m 0,7 C 2,0 C 0,0 km/h (0 Bft) 89 %
15.11.2017 21:50 1,9 C 1,9 C 2,0 C 91 % 1026,5 hPa 0,0 l/m 0,0 km/h (0 Bft) N-NO 17 0 min 0,000 mm 0 W/m 0,6 C 1,9 C 0,0 km/h (0 Bft) 97 %
15.11.2017 22:00 1,9 C 1,9 C 1,9 C 91 % 1026,5 hPa 0,0 l/m 0,0 km/h (0 Bft) N-NO 17 0 min 0,000 mm 0 W/m 0,6 C 1,9 C 0,0 km/h (0 Bft) 97 %
15.11.2017 22:10 1,9 C 1,9 C 1,9 C 91 % 1026,4 hPa 0,0 l/m 0,0 km/h (0 Bft) N-NO 17 0 min 0,000 mm 0 W/m 0,6 C 1,9 C 0,0 km/h (0 Bft) 98 %
15.11.2017 22:20 1,9 C 1,9 C 1,9 C 91 % 1026,4 hPa 0,0 l/m 0,0 km/h (0 Bft) N-NO 17 0 min 0,000 mm 0 W/m 0,6 C 1,9 C 0,0 km/h (0 Bft) 97 %
15.11.2017 22:30 1,9 C 1,9 C 1,9 C 91 % 1026,5 hPa 0,0 l/m 0,0 km/h (0 Bft) N-NO 17 0 min 0,000 mm 0 W/m 0,6 C 1,9 C 0,0 km/h (0 Bft) 98 %
15.11.2017 22:40 1,8 C 1,8 C 1,9 C 92 % 1026,4 hPa 0,0 l/m 0,0 km/h (0 Bft) N-NO 17 0 min 0,000 mm 0 W/m 0,6 C 1,8 C 0,0 km/h (0 Bft) 97 %
15.11.2017 22:50 1,8 C 1,8 C 1,9 C 91 % 1026,5 hPa 0,0 l/m 0,0 km/h (0 Bft) N-NO 17 0 min 0,000 mm 0 W/m 0,5 C 1,8 C 0,0 km/h (0 Bft) 97 %
15.11.2017 23:00 1,8 C 1,8 C 1,8 C 91 % 1026,3 hPa 0,0 l/m 0,1 km/h (0 Bft) N-NO 17 0 min 0,000 mm 0 W/m 0,5 C 1,8 C 4,8 km/h (1 Bft) 97 %
15.11.2017 23:10 1,8 C 1,8 C 1,8 C 92 % 1026,5 hPa 0,0 l/m 0,0 km/h (0 Bft) N-NO 17 0 min 0,000 mm 0 W/m 0,6 C 1,8 C 3,2 km/h (1 Bft) 97 %
15.11.2017 23:20 1,8 C 1,8 C 1,8 C 92 % 1026,4 hPa 0,0 l/m 0,0 km/h (0 Bft) N-NO 17 0 min 0,000 mm 0 W/m 0,6 C 1,8 C 0,0 km/h (0 Bft) 98 %
15.11.2017 23:30 1,9 C 1,8 C 1,9 C 92 % 1026,4 hPa 0,0 l/m 0,1 km/h (0 Bft) N-NO 15 0 min 0,000 mm 0 W/m 0,7 C 1,9 C 3,2 km/h (1 Bft) 97 %
15.11.2017 23:40 2,0 C 1,9 C 2,0 C 91 % 1026,3 hPa 0,0 l/m 0,0 km/h (0 Bft) N-NO 18 0 min 0,000 mm 0 W/m 0,7 C 2,0 C 1,6 km/h (1 Bft) 98 %
15.11.2017 23:50 2,1 C 2,0 C 2,1 C 91 % 1026,2 hPa 0,0 l/m 0,3 km/h (0 Bft) N 5 0 min 0,000 mm 0 W/m 0,8 C 2,1 C 4,8 km/h (1 Bft) 97 %
_ Min-Zeit 06:40 06:40 07:00 16:00 23:50 - 00:00 - - - - - 06:50 06:50 00:00 09:50
Minimum _ -2,2 C -2,2 C -2,2 C 91 % 1026,2 hPa - 0,0 km/h (0 Bft) - - - - - -3,3 C -2,2 C 0,0 km/h (0 Bft) 89 %
_ Max-Zeit 15:20 15:20 15:20 00:00 09:30 09:30 17:20 - - 11:30 13:00 12:20 15:20 15:20 12:10 00:10
Maximum _ 4,0 C 3,9 C 4,0 C 92 % 1028,5 hPa 0,2 l/m 1,8 km/h
N-NW (1 Bft)
- - 10 min 0,076 mm 281 W/m 2,8 C 4,0 C 6,4 km/h
W-NW (2 Bft)
100 %
Durchschnitt _ 0,6 C 0,5 C 0,6 C 92 % 1027,3 hPa #0,2 l/m 0,1 km/h (0 Bft) SW - #1:50 h #0,305 mm 94 W/m -0,6 C 0,6 C 0,9 km/h (0 Bft) 98 %
PRIVATE WETTERSTATION BILLIGHEIM-ALLFELD - www.neckar-odenwald-wetter.de - Holger Sonntag